{"data":{"norad_id":67948,"epoch":"2026-05-24T23:38:51.875232Z","epoch_age_seconds":72947,"freshness":"FRESH","line1":"1 67948U 26037S   26144.98532263  .00008855  00000+0  33085-3 0  9994","line2":"2 67948  43.0025 119.4570 0001837 271.3891  88.6750 15.27586121 15016","mean_motion":15.27586121,"eccentricity":0.0001837,"inclination_deg":43.0025,"raan_deg":119.457,"arg_perigee_deg":271.3891,"mean_anomaly_deg":88.675,"bstar":0.00033085,"rev_number":1501,"period_min":94.266370989109,"perigee_km":481.77037110592,"apogee_km":484.29116414375,"semimajor_km":6861.1677676248,"source":"CELESTRAK","updated_at":"2026-05-25T13:38:21.769638Z"}}